Regional Weather Roundup
Issued by NWS

Home | Current Version | Previous Version | Graphics & Text | Print | Product List | Glossary On
Versions: 1 2 3 4 5 6 7 8 9 10 11 12 13 14 15 16 17 18 19 20 21 22 23 24 25 26 27 28 29 30 31 32 33 34 35 36 37 38 39 40 41 42 43 44 45 46 47 48 49 50
000
ASUS43 KTOP 262359
RWRKS

WEATHER ROUNDUP FOR KANSAS
NATIONAL WEATHER SERVICE GOODLAND KS
700 PM CDT MON JUN 26 2017

NOTE:  "FAIR" INDICATES FEW OR NO CLOUDS BELOW 12,000 FEET WITH NO
SIGNIFICANT WEATHER AND/OR OBSTRUCTIONS TO VISIBILITY.

KSZ001>006-013>018-027>032-041>047-270100-
NORTHWEST KANSAS

CITY           SKY/WX    TMP DP  RH WIND       PRES   REMARKS
GOODLAND       CLOUDY    71  61  70 E23G31    30.11R
6HR MIN TEMP:  71; 6HR MAX TEMP:  85;

HILL CITY      CLOUDY    82  62  50 E6        30.08R
6HR MIN TEMP:  75; 6HR MAX TEMP:  84;

RUSSELL        CLOUDY    83  61  47 N7        30.03S
6HR MIN TEMP:  78; 6HR MAX TEMP:  85;

$$

KSZ061>065-074>080-084>089-270100-
SOUTHWEST KANSAS

CITY           SKY/WX    TMP DP  RH WIND       PRES   REMARKS
DODGE CITY     SUNNY     84  61  45 SW8       30.04F
6HR MIN TEMP:  77; 6HR MAX TEMP:  86;

ELKHART          N/A     79  54  42 SE7         N/A
GARDEN CITY    CLOUDY    85  56  37 SE12      30.05F
6HR MIN TEMP:  72; 6HR MAX TEMP:  86;

GREAT BEND     MOSUNNY   84  58  40 CALM      30.02
LIBERAL        MOSUNNY   88  58  36 S8        30.04F
$$

KSZ066>073-081>083-090>101-270100-
SOUTHEAST KANSAS

CITY           SKY/WX    TMP DP  RH WIND       PRES   REMARKS
CHANUTE        SUNNY     75  64  68 E14       30.05F
6HR MIN TEMP:  74; 6HR MAX TEMP:  85; 6HR PCP: TRACE;

COFFEYVILLE    MOSUNNY   86  60  41 S7        30.02F
6HR MIN TEMP:  82; 6HR MAX TEMP:  88;

HUTCHINSON     SUNNY     87  55  33 W3        29.99F
6HR MIN TEMP:  83; 6HR MAX TEMP:  89;

MEDICINE LODGE   N/A     87  60  40 S8        29.99F
NEWTON         MOSUNNY   82  59  45 E8        30.02F
PARSONS        PTSUNNY   77  66  68 NE6       30.05S
6HR MIN TEMP:  77; 6HR MAX TEMP:  87;

WICHITA INTL   MOSUNNY   86  60  41 S10       29.99F
6HR MIN TEMP:  82; 6HR MAX TEMP:  88;

WICHITA JABRA  SUNNY     85  58  39 SW6       30.00F
6HR MIN TEMP:  81; 6HR MAX TEMP:  87;

WINFIELD       SUNNY     84  60  44 S13       30.02F
6HR MIN TEMP:  83; 6HR MAX TEMP:  88;

$$

KSZ007>012-019>026-033>040-048>060-102>105-270100-
NORTHEAST KANSAS

CITY           SKY/WX    TMP DP  RH WIND       PRES   REMARKS
CONCORDIA      CLOUDY    75  62  64 NE9G18    30.06S
6HR MIN TEMP:  75; 6HR MAX TEMP:  83;

EMPORIA        SUNNY     77  63  61 E13       30.04S
6HR MIN TEMP:  76; 6HR MAX TEMP:  82;

LAWRENCE       PTSUNNY   69  62  78 NE6       30.11R
6HR MIN TEMP:  66; 6HR MAX TEMP:  75; 6HR PCP:  0.01;

MANHATTAN      LGT RAIN  70  65  84 E13       30.06S
6HR MIN TEMP:  70; 6HR MAX TEMP:  82; 6HR PCP:  0.03;

OLATHE IND     LGT RAIN  69  56  62 NE6       30.12R
6HR MIN TEMP:  68; 6HR MAX TEMP:  72; 6HR PCP: TRACE;

OLATHE EXE     LGT RAIN  68  56  65 CALM      30.12R
6HR MIN TEMP:  65; 6HR MAX TEMP:  70; 6HR PCP: TRACE;

SALINA         CLOUDY    76  61  59 NE20G29   30.02R
6HR MIN TEMP:  74; 6HR MAX TEMP:  89;

TOPEKA BILLARD PTSUNNY   68  64  87 NE6       30.09S
6HR MIN TEMP:  68; 6HR MAX TEMP:  77; 6HR PCP: TRACE;

TOPEKA FORBES  PTSUNNY   73  60  63 E10       30.09S
6HR MIN TEMP:  70; 6HR MAX TEMP:  79;

$$




USA.gov is the U.S. government's official web portal to all federal, state and local government web resources and services.